Tracking 29892 objects as of 21-Nov-2024
HD Live streaming from Space Station
objects crossing your sky now

COSMOS 1823 DEB

Track COSMOS 1823 DEB now!
10-day predictions


NORAD ID: 26601
Int'l Code: 1987-020DT
Perigee: 1,485.7 km
Apogee: 1,530.9 km
Inclination: 73.6 °
Period: 116.0 minutes
Semi major axis: 7879 km
RCS: 0.0108 m2 (small)
Launch date: February 20, 1987
Source: Commonwealth of Independent States (former USSR) (CIS)
Launch site: PLESETSK MISSILE AND SPACE COMPLEX (PKMTR)

Note: This is SATELLITE DEBRIS
Your satellite tracking list
Your tracking list is empty




NASA's NSSDC Master Catalog

Two Line Element Set (TLE):
1 26601U 87020DT  24324.35162321 -.00000014  00000-0  22874-4 0  9993
2 26601  73.6010  95.5479 0028662 348.6178  39.8741 12.41282409208773
Source of the keplerian elements: AFSPC